This is the latest recevied weather packets stored in our database for station/object PA1CD-13. If no packets are shown the sender has not sent any weather packets the latest 1 day(s).
| Time | Temp. | Humidity | Pressure | Rain* | Wind** | Luminosity | Snow |
|---|---|---|---|---|---|---|---|
| 1777992311 | 13.89° C | 63% | 1010 hPa | 0 mm | 1.34 m/s, 72° | 610 W/m² | - |
| 1777992188 | 13.89° C | 63% | 1009.9 hPa | 0 mm | 1.34 m/s, 0° | 610 W/m² | - |
| 1777992068 | 14.44° C | 63% | 1010 hPa | 0 mm | 2.24 m/s, 0° | 610 W/m² | - |
| 1777991948 | 14.44° C | 63% | 1010 hPa | 0 mm | 1.34 m/s, 0° | 593 W/m² | - |
| 1777991826 | 14.44° C | 63% | 1010 hPa | 0 mm | 0.45 m/s, 69° | 230 W/m² | - |
| 1777991708 | 14.44° C | 63% | 1010 hPa | 0 mm | 1.34 m/s, 0° | 230 W/m² | - |
| 1777991587 | 14.44° C | 63% | 1010.1 hPa | 0 mm | 3.13 m/s, 0° | 338 W/m² | - |
| 1777991467 | 14.44° C | 63% | 1010.1 hPa | 0 mm | 1.79 m/s, 0° | 758 W/m² | - |
| 1777991346 | 14.44° C | 63% | 1010.1 hPa | 0 mm | 0.89 m/s, 0° | 710 W/m² | - |
| 1777991227 | 14.44° C | 63% | 1010.1 hPa | 0 mm | 3.58 m/s, 0° | 672 W/m² | - |
| 1777991107 | 14.44° C | 63% | 1010 hPa | 0 mm | 2.68 m/s, 37° | 695 W/m² | - |
| 1777990978 | 14.44° C | 63% | 1010.1 hPa | 0 mm | 1.34 m/s, 0° | 680 W/m² | - |
| 1777990837 | 14.44° C | 63% | 1010.1 hPa | 0 mm | 0 m/s | 688 W/m² | - |
| 1777990711 | 14.44° C | 63% | 1010.1 hPa | 0 mm | 2.68 m/s, 72° | 712 W/m² | - |
| 1777990593 | 14.44° C | 63% | 1010.2 hPa | 0 mm | 2.68 m/s, 0° | 712 W/m² | - |
| 1777990472 | 14.44° C | 63% | 1010.2 hPa | 0 mm | 1.34 m/s, 0° | 714 W/m² | - |
| 1777990352 | 14.44° C | 63% | 1010.2 hPa | 0 mm | 3.13 m/s, 72° | 709 W/m² | - |
| 1777990222 | 14.44° C | 63% | 1010.2 hPa | 0 mm | 2.24 m/s, 66° | 712 W/m² | - |
| 1777990096 | 14.44° C | 63% | 1010.2 hPa | 0 mm | 2.68 m/s, 72° | 724 W/m² | - |
| 1777989971 | 14.44° C | 63% | 1010.2 hPa | 0 mm | 2.68 m/s, 63° | 724 W/m² | - |
| 1777989853 | 14.44° C | 63% | 1010.2 hPa | 0 mm | 3.58 m/s, 69° | 730 W/m² | - |
| 1777989730 | 14.44° C | 63% | 1010.2 hPa | 0 mm | 1.79 m/s, 69° | 737 W/m² | - |
| 1777989607 | 14.44° C | 63% | 1010.2 hPa | 0 mm | 1.34 m/s, 87° | 724 W/m² | - |
| 1777989488 | 14.44° C | 62% | 1010.3 hPa | 0 mm | 1.34 m/s, 71° | 735 W/m² | - |
| 1777989368 | 14.44° C | 63% | 1010.3 hPa | 0 mm | 1.34 m/s, 62° | 735 W/m² | - |
* Rain latest hour (hover to see other rain measurements)
** Current wind speed in m/s (hover to see current wind gust speed)